,,PressureMeas_1m,,PRMeasQMR101_1,,RHStat155_1m_1,,SRMeasQMS101R_1m,,TAStat155_1m_1,,GenWind_1,,GenWind_1,
2017-04-29, 07:00:06,VALID,917.817,VALID,0.0,VALID,94.738,VALID,194.122,VALID,19.925,VALID,137.0,VALID,0.967,
2017-04-29, 07:01:06,VALID,917.82,VALID,0.0,VALID,94.33,VALID,199.211,VALID,20.022,VALID,136.0,VALID,0.812,
2017-04-29, 07:02:06,VALID,917.834,VALID,0.0,VALID,94.185,VALID,205.887,VALID,20.137,VALID,131.0,VALID,0.88,
2017-04-29, 07:03:06,VALID,917.844,VALID,0.0,VALID,93.842,VALID,212.544,VALID,20.246,VALID,115.0,VALID,0.633,
2017-04-29, 07:04:06,VALID,917.851,VALID,0.0,VALID,93.531,VALID,218.503,VALID,20.366,VALID,123.0,VALID,0.756,
2017-04-29, 07:05:06,VALID,917.875,VALID,0.0,VALID,93.012,VALID,224.104,VALID,20.469,VALID,130.0,VALID,0.815,
2017-04-29, 07:06:06,VALID,917.894,VALID,0.0,VALID,93.216,VALID,229.704,VALID,20.583,VALID,123.0,VALID,0.459,
2017-04-29, 07:07:06,VALID,917.916,VALID,0.0,VALID,92.373,VALID,234.187,VALID,20.689,VALID,141.0,VALID,0.675,
2017-04-29, 07:08:06,VALID,917.924,VALID,0.0,VALID,91.246,VALID,238.296,VALID,20.773,VALID,133.0,VALID,0.745,
2017-04-29, 07:09:06,VALID,917.949,VALID,0.0,VALID,91.694,VALID,243.295,VALID,20.846,VALID,124.0,VALID,0.635,
2017-04-29, 07:10:06,VALID,917.974,VALID,0.0,VALID,90.134,VALID,248.423,VALID,20.858,VALID,113.0,VALID,0.988,
2017-04-29, 07:11:06,VALID,917.986,VALID,0.0,VALID,90.198,VALID,253.317,VALID,20.83,VALID,103.0,VALID,0.916,
2017-04-29, 07:12:06,VALID,918.0,VALID,0.0,VALID,91.002,VALID,257.873,VALID,20.868,VALID,100.0,VALID,1.051,
2017-04-29, 07:13:06,VALID,918.004,VALID,0.0,VALID,90.412,VALID,262.095,VALID,20.855,VALID,111.0,VALID,1.171,
2017-04-29, 07:14:06,VALID,917.998,VALID,0.0,VALID,90.828,VALID,266.285,VALID,20.859,VALID,106.0,VALID,0.989,
2017-04-29, 07:15:06,VALID,918.001,VALID,0.0,VALID,91.378,VALID,269.119,VALID,20.928,VALID,121.0,VALID,0.666,
2017-04-29, 07:16:06,VALID,917.993,VALID,0.0,VALID,90.402,VALID,245.758,VALID,20.98,VALID,116.0,VALID,1.124,
2017-04-29, 07:17:06,VALID,917.985,VALID,0.0,VALID,91.335,VALID,223.128,VALID,21.031,VALID,144.0,VALID,1.08,
2017-04-29, 07:18:06,VALID,917.995,VALID,0.0,VALID,90.61,VALID,251.168,VALID,21.017,VALID,158.0,VALID,1.173,
2017-04-29, 07:19:06,VALID,918.005,VALID,0.0,VALID,90.693,VALID,282.925,VALID,20.957,VALID,160.0,VALID,1.078,
2017-04-29, 07:20:06,VALID,918.011,VALID,0.0,VALID,91.28,VALID,297.3,VALID,20.927,VALID,158.0,VALID,1.184,
2017-04-29, 07:21:06,VALID,918.012,VALID,0.0,VALID,90.608,VALID,303.512,VALID,20.863,VALID,151.0,VALID,1.39,
2017-04-29, 07:22:06,VALID,918.024,VALID,0.0,VALID,90.277,VALID,309.792,VALID,20.753,VALID,150.0,VALID,1.599,
2017-04-29, 07:23:06,VALID,918.042,VALID,0.0,VALID,90.785,VALID,315.227,VALID,20.666,VALID,150.0,VALID,1.41,
2017-04-29, 07:24:06,VALID,918.047,VALID,0.0,VALID,92.072,VALID,320.373,VALID,20.674,VALID,147.0,VALID,1.314,
2017-04-29, 07:25:06,VALID,918.064,VALID,0.0,VALID,91.505,VALID,326.723,VALID,20.736,VALID,145.0,VALID,1.551,
2017-04-29, 07:26:06,VALID,918.086,VALID,0.0,VALID,91.635,VALID,331.005,VALID,20.783,VALID,150.0,VALID,1.775,
2017-04-29, 07:27:06,VALID,918.092,VALID,0.0,VALID,90.88,VALID,325.544,VALID,20.808,VALID,156.0,VALID,1.748,
2017-04-29, 07:28:06,VALID,918.109,VALID,0.0,VALID,90.561,VALID,324.317,VALID,20.807,VALID,155.0,VALID,2.068,
2017-04-29, 07:29:06,VALID,918.131,VALID,0.0,VALID,90.951,VALID,287.451,VALID,20.858,VALID,155.0,VALID,1.818,
2017-04-29, 07:30:06,VALID,918.141,VALID,0.0,VALID,91.332,VALID,233.651,VALID,20.934,VALID,153.0,VALID,1.9,
2017-04-29, 07:31:06,VALID,918.152,VALID,0.0,VALID,90.713,VALID,167.043,VALID,20.937,VALID,148.0,VALID,1.982,
2017-04-29, 07:32:06,VALID,918.17,VALID,0.0,VALID,90.426,VALID,137.89,VALID,20.928,VALID,145.0,VALID,1.561,
2017-04-29, 07:33:06,VALID,918.173,VALID,0.0,VALID,91.154,VALID,132.781,VALID,20.945,VALID,156.0,VALID,1.647,
2017-04-29, 07:34:06,VALID,918.178,VALID,0.0,VALID,90.552,VALID,132.302,VALID,20.902,VALID,152.0,VALID,1.787,
2017-04-29, 07:35:06,VALID,918.183,VALID,0.0,VALID,90.885,VALID,133.469,VALID,20.881,VALID,155.0,VALID,1.952,
2017-04-29, 07:36:06,VALID,918.177,VALID,0.0,VALID,90.666,VALID,135.308,VALID,20.83,VALID,148.0,VALID,1.771,
2017-04-29, 07:37:06,VALID,918.154,VALID,0.0,VALID,90.528,VALID,137.09,VALID,20.767,VALID,151.0,VALID,1.963,
2017-04-29, 07:38:06,VALID,918.152,VALID,0.0,VALID,90.657,VALID,138.719,VALID,20.696,VALID,149.0,VALID,1.861,
2017-04-29, 07:39:06,VALID,918.162,VALID,0.0,VALID,91.39,VALID,140.446,VALID,20.634,VALID,145.0,VALID,1.616,
2017-04-29, 07:40:06,VALID,918.158,VALID,0.0,VALID,91.45,VALID,141.791,VALID,20.599,VALID,150.0,VALID,1.778,
2017-04-29, 07:41:06,VALID,918.175,VALID,0.0,VALID,91.841,VALID,142.596,VALID,20.58,VALID,145.0,VALID,1.917,
2017-04-29, 07:42:06,VALID,918.162,VALID,0.0,VALID,92.014,VALID,143.092,VALID,20.566,VALID,144.0,VALID,1.563,
2017-04-29, 07:43:06,VALID,918.156,VALID,0.0,VALID,92.248,VALID,143.564,VALID,20.551,VALID,144.0,VALID,1.843,
2017-04-29, 07:44:06,VALID,918.161,VALID,0.0,VALID,92.119,VALID,144.265,VALID,20.538,VALID,149.0,VALID,2.076,
2017-04-29, 07:45:06,VALID,918.171,VALID,0.0,VALID,92.677,VALID,145.267,VALID,20.524,VALID,154.0,VALID,1.967,
2017-04-29, 07:46:06,VALID,918.189,VALID,0.0,VALID,92.582,VALID,146.457,VALID,20.517,VALID,153.0,VALID,1.996,
2017-04-29, 07:47:06,VALID,918.2,VALID,0.0,VALID,92.58,VALID,147.896,VALID,20.51,VALID,151.0,VALID,2.145,
2017-04-29, 07:48:06,VALID,918.202,VALID,0.0,VALID,92.829,VALID,153.216,VALID,20.518,VALID,158.0,VALID,1.805,
2017-04-29, 07:49:06,VALID,918.222,VALID,0.0,VALID,92.643,VALID,159.415,VALID,20.509,VALID,151.0,VALID,2.16,
2017-04-29, 07:50:06,VALID,918.237,VALID,0.0,VALID,92.354,VALID,158.025,VALID,20.518,VALID,156.0,VALID,2.013,
2017-04-29, 07:51:06,VALID,918.249,VALID,0.0,VALID,92.732,VALID,155.991,VALID,20.569,VALID,166.0,VALID,1.507,
2017-04-29, 07:52:06,VALID,918.262,VALID,0.0,VALID,93.021,VALID,171.995,VALID,20.623,VALID,158.0,VALID,1.188,
2017-04-29, 07:53:06,VALID,918.277,VALID,0.0,VALID,92.736,VALID,191.897,VALID,20.674,VALID,146.0,VALID,1.799,
2017-04-29, 07:54:06,VALID,918.298,VALID,0.0,VALID,92.364,VALID,185.955,VALID,20.694,VALID,140.0,VALID,1.797,
2017-04-29, 07:55:06,VALID,918.314,VALID,0.0,VALID,92.203,VALID,176.893,VALID,20.745,VALID,143.0,VALID,1.864,
2017-04-29, 07:56:06,VALID,918.312,VALID,0.0,VALID,91.846,VALID,184.465,VALID,20.801,VALID,150.0,VALID,1.707,
2017-04-29, 07:57:06,VALID,918.319,VALID,0.0,VALID,91.885,VALID,205.992,VALID,20.824,VALID,156.0,VALID,1.742,
2017-04-29, 07:58:06,VALID,918.335,VALID,0.0,VALID,91.811,VALID,207.281,VALID,20.857,VALID,154.0,VALID,1.652,
2017-04-29, 07:59:06,VALID,918.326,VALID,0.0,VALID,92.354,VALID,201.266,VALID,20.891,VALID,157.0,VALID,1.376,
2017-04-29, 08:00:06,VALID,918.329,VALID,0.0,VALID,91.792,VALID,196.864,VALID,20.889,VALID,151.0,VALID,1.887,
2017-04-29, 08:01:06,VALID,918.344,VALID,0.0,VALID,91.904,VALID,191.389,VALID,20.9,VALID,155.0,VALID,1.474,
2017-04-29, 08:02:06,VALID,918.347,VALID,0.0,VALID,91.763,VALID,185.512,VALID,20.942,VALID,152.0,VALID,1.674,
2017-04-29, 08:03:06,VALID,918.343,VALID,0.0,VALID,91.688,VALID,184.821,VALID,20.934,VALID,153.0,VALID,1.507,
2017-04-29, 08:04:06,VALID,918.348,VALID,0.0,VALID,92.27,VALID,194.266,VALID,20.96,VALID,158.0,VALID,1.687,
2017-04-29, 08:05:06,VALID,918.348,VALID,0.0,VALID,91.771,VALID,211.723,VALID,20.962,VALID,150.0,VALID,1.776,
2017-04-29, 08:06:06,VALID,918.346,VALID,0.0,VALID,91.551,VALID,218.109,VALID,20.943,VALID,151.0,VALID,1.927,
2017-04-29, 08:07:06,VALID,918.366,VALID,0.0,VALID,91.407,VALID,204.873,VALID,20.944,VALID,153.0,VALID,1.858,
2017-04-29, 08:08:06,VALID,918.386,VALID,0.0,VALID,91.4,VALID,211.134,VALID,20.979,VALID,155.0,VALID,1.921,
2017-04-29, 08:09:06,VALID,918.389,VALID,0.0,VALID,91.0,VALID,212.533,VALID,21.013,VALID,153.0,VALID,2.02,
2017-04-29, 08:10:06,VALID,918.393,VALID,0.0,VALID,89.77,VALID,196.402,VALID,21.035,VALID,150.0,VALID,2.039,
2017-04-29, 08:11:06,VALID,918.393,VALID,0.0,VALID,90.117,VALID,203.542,VALID,21.074,VALID,153.0,VALID,1.962,
2017-04-29, 08:12:06,VALID,918.41,VALID,0.0,VALID,90.056,VALID,219.555,VALID,21.068,VALID,148.0,VALID,2.201,
2017-04-29, 08:13:06,VALID,918.403,VALID,0.0,VALID,89.9,VALID,228.066,VALID,21.025,VALID,145.0,VALID,2.177,
2017-04-29, 08:14:06,VALID,918.419,VALID,0.0,VALID,90.804,VALID,237.808,VALID,21.001,VALID,142.0,VALID,1.89,
2017-04-29, 08:15:06,VALID,918.415,VALID,0.0,VALID,90.246,VALID,253.369,VALID,21.047,VALID,142.0,VALID,1.883,
2017-04-29, 08:16:06,VALID,918.431,VALID,0.0,VALID,90.89,VALID,274.008,VALID,21.131,VALID,151.0,VALID,1.405,
2017-04-29, 08:17:06,VALID,918.452,VALID,0.0,VALID,90.313,VALID,289.496,VALID,21.204,VALID,154.0,VALID,1.482,
2017-04-29, 08:18:06,VALID,918.467,VALID,0.0,VALID,89.959,VALID,300.341,VALID,21.246,VALID,171.0,VALID,1.279,
2017-04-29, 08:19:06,VALID,918.474,VALID,0.0,VALID,89.752,VALID,310.175,VALID,21.31,VALID,165.0,VALID,1.397,
2017-04-29, 08:20:06,VALID,918.481,VALID,0.0,VALID,89.25,VALID,325.955,VALID,21.349,VALID,148.0,VALID,1.407,
2017-04-29, 08:21:06,VALID,918.481,VALID,0.0,VALID,89.492,VALID,330.58,VALID,21.396,VALID,146.0,VALID,1.435,
2017-04-29, 08:22:06,VALID,918.492,VALID,0.0,VALID,88.622,VALID,330.733,VALID,21.441,VALID,147.0,VALID,1.492,
2017-04-29, 08:23:06,VALID,918.507,VALID,0.0,VALID,87.878,VALID,342.052,VALID,21.455,VALID,149.0,VALID,1.696,
2017-04-29, 08:24:06,VALID,918.514,VALID,0.0,VALID,88.359,VALID,351.213,VALID,21.505,VALID,158.0,VALID,1.489,
2017-04-29, 08:25:06,VALID,918.525,VALID,0.0,VALID,87.468,VALID,358.205,VALID,21.526,VALID,152.0,VALID,1.655,
2017-04-29, 08:26:06,VALID,918.526,VALID,0.0,VALID,87.332,VALID,379.769,VALID,21.562,VALID,148.0,VALID,1.627,
2017-04-29, 08:27:06,VALID,918.548,VALID,0.0,VALID,87.057,VALID,403.245,VALID,21.611,VALID,153.0,VALID,1.664,
2017-04-29, 08:28:06,VALID,918.538,VALID,0.0,VALID,87.969,VALID,416.518,VALID,21.702,VALID,150.0,VALID,1.729,
2017-04-29, 08:29:06,VALID,918.536,VALID,0.0,VALID,87.362,VALID,422.19,VALID,21.845,VALID,148.0,VALID,1.672,
2017-04-29, 08:30:06,VALID,918.541,VALID,0.0,VALID,87.297,VALID,433.796,VALID,22.029,VALID,134.0,VALID,1.418,
2017-04-29, 08:31:06,VALID,918.55,VALID,0.0,VALID,86.371,VALID,425.778,VALID,22.193,VALID,138.0,VALID,1.754,
2017-04-29, 08:32:06,VALID,918.545,VALID,0.0,VALID,85.497,VALID,449.319,VALID,22.221,VALID,151.0,VALID,1.867,
